| time (UTC) | temp F | wind direction | speed knots | gust knots | rain 1hr in | rain 24hr in | rain mn in | humidity % | barometer mb |
| 20260510081738 | 58 | 272 | 3.5 | 7.0 | 0.00 | 0.00 | 0.00 | 67 | 1011.5 |
| 20260510081453 | 58 | 266 | 3.5 | 6.1 | 0.00 | 0.00 | 0.00 | 67 | 1011.5 |
| 20260510080726 | 58 | 266 | 2.6 | 5.2 | 0.00 | 0.00 | 0.00 | 67 | 1011.4 |
| 20260510080220 | 58 | 254 | 2.6 | 4.3 | 0.00 | 0.00 | 0.00 | 67 | 1011.4 |
| 20260510075715 | 58 | 254 | 2.6 | 4.3 | 0.00 | 0.00 | 0.00 | 66 | 1011.3 |
| 20260510075214 | 58 | 254 | 3.5 | 4.3 | 0.00 | 0.00 | 0.00 | 66 | 1011.3 |
| 20260510074713 | 58 | 254 | 2.6 | 4.3 | 0.00 | 0.00 | 0.00 | 66 | 1011.2 |
| 20260510074210 | 58 | 254 | 2.6 | 5.2 | 0.00 | 0.00 | 0.00 | 65 | 1011.1 |
| 20260510073709 | 58 | 254 | 3.5 | 5.2 | 0.00 | 0.00 | 0.00 | 65 | 1011.1 |
| 20260510073208 | 58 | 254 | 3.5 | 5.2 | 0.00 | 0.00 | 0.00 | 65 | 1011.1 |
| 20260510072708 | 58 | 254 | 2.6 | 5.2 | 0.00 | 0.00 | 0.00 | 65 | 1011.1 |
| 20260510072206 | 58 | 252 | 3.5 | 6.1 | 0.00 | 0.00 | 0.00 | 65 | 1011.1 |
| 20260510071706 | 59 | 251 | 3.5 | 6.1 | 0.00 | 0.00 | 0.00 | 64 | 1011.1 |
| 20260510071651 | 59 | 245 | 3.5 | 5.2 | 0.00 | 0.00 | 0.00 | 64 | 1011.1 |
| 20260510070705 | 59 | 245 | 3.5 | 7.0 | 0.00 | 0.00 | 0.00 | 64 | 1011.1 |
| 20260510070204 | 59 | 245 | 4.3 | 7.0 | 0.00 | 0.00 | 0.00 | 63 | 1011.2 |
| 20260510065704 | 59 | 227 | 4.3 | 6.1 | 0.00 | 0.00 | 0.00 | 63 | 1011.1 |
| 20260510065201 | 59 | 225 | 3.5 | 5.2 | 0.00 | 0.00 | 0.00 | 63 | 1010.8 |
| 20260510064928 | 59 | 223 | 3.5 | 6.1 | 0.00 | 0.00 | 0.00 | 63 | 1010.8 |
| 20260510064202 | 59 | 223 | 3.5 | 6.1 | 0.00 | 0.00 | 0.00 | 63 | 1010.8 |
| 20260510063700 | 59 | 222 | 3.5 | 5.2 | 0.00 | 0.00 | 0.00 | 63 | 1010.6 |
| 20260510063200 | 59 | 220 | 2.6 | 5.2 | 0.00 | 0.00 | 0.00 | 63 | 1010.7 |
| 20260510062701 | 59 | 219 | 3.5 | 6.1 | 0.00 | 0.00 | 0.00 | 63 | 1010.7 |
| 20260510062200 | 59 | 218 | 4.3 | 6.1 | 0.00 | 0.00 | 0.00 | 62 | 1010.7 |
| 20260510061655 | 59 | 217 | 4.3 | 7.0 | 0.00 | 0.00 | 0.00 | 62 | 1010.7 |
| 20260510061149 | 60 | 216 | 5.2 | 7.8 | 0.00 | 0.00 | 0.00 | 61 | 1010.7 |
| 20260510060906 | 60 | 214 | 5.2 | 7.8 | 0.00 | 0.00 | 0.00 | 61 | 1010.8 |
| 20260510060359 | 60 | 214 | 5.2 | 7.8 | 0.00 | 0.00 | 0.00 | 60 | 1010.8 |
| 20260510055630 | 60 | 213 | 5.2 | 8.7 | 0.00 | 0.00 | 0.00 | 60 | 1010.8 |
| 20260510055125 | 60 | 213 | 6.1 | 10.4 | 0.00 | 0.00 | 0.00 | 60 | 1010.8 |
| 20260510054619 | 60 | 211 | 6.1 | 10.4 | 0.00 | 0.00 | 0.00 | 60 | 1010.7 |
| 20260510054341 | 60 | 212 | 6.1 | 11.3 | 0.00 | 0.00 | 0.00 | 60 | 1010.6 |
| 20260510053611 | 60 | 210 | 5.2 | 11.3 | 0.00 | 0.00 | 0.00 | 61 | 1010.6 |
| 20260510053112 | 59 | 220 | 1.7 | 8.7 | 0.00 | 0.00 | 0.00 | 61 | 1010.7 |
| 20260510052612 | 59 | 279 | 0.0 | 3.5 | 0.00 | 0.00 | 0.00 | 61 | 1010.7 |
| 20260510052112 | 60 | 45 | 1.7 | 4.3 | 0.00 | 0.00 | 0.00 | 60 | 1010.7 |
| 20260510051611 | 59 | 45 | 2.6 | 7.8 | 0.00 | 0.00 | 0.00 | 60 | 1010.6 |
| 20260510051109 | 59 | 45 | 2.6 | 7.8 | 0.00 | 0.00 | 0.00 | 60 | 1010.7 |
| 20260510050839 | 59 | 45 | 2.6 | 5.2 | 0.00 | 0.00 | 0.00 | 60 | 1010.8 |
| 20260510050109 | 59 | 45 | 2.6 | 5.2 | 0.00 | 0.00 | 0.00 | 60 | 1010.8 |
| 20260510045607 | 58 | 45 | 1.7 | 5.2 | 0.00 | 0.00 | 0.00 | 61 | 1010.8 |
| 20260510045108 | 58 | 45 | 1.7 | 3.5 | 0.00 | 0.00 | 0.00 | 60 | 1010.8 |
| 20260510044608 | 59 | 45 | 2.6 | 4.3 | 0.00 | 0.00 | 0.00 | 60 | 1010.8 |
| 20260510044331 | 59 | 45 | 2.6 | 4.3 | 0.00 | 0.00 | 0.00 | 60 | 1011.0 |
| 20260510043608 | 59 | 45 | 3.5 | 7.0 | 0.00 | 0.00 | 0.00 | 59 | 1011.0 |
| 20260510043327 | 59 | 45 | 3.5 | 7.0 | 0.00 | 0.00 | 0.00 | 59 | 1011.0 |
| 20260510042608 | 60 | 45 | 3.5 | 7.0 | 0.00 | 0.00 | 0.00 | 58 | 1011.1 |
| 20260510042329 | 60 | 45 | 4.3 | 7.8 | 0.00 | 0.00 | 0.00 | 58 | 1011.1 |
| 20260510041609 | 60 | 45 | 5.2 | 8.7 | 0.00 | 0.00 | 0.00 | 57 | 1011.1 |
| 20260510041329 | 60 | 274 | 4.3 | 8.7 | 0.00 | 0.00 | 0.00 | 57 | 1011.1 |
| 20260510040609 | 60 | 45 | 5.2 | 8.7 | 0.00 | 0.00 | 0.00 | 58 | 1011.1 |
| 20260510040327 | 60 | 45 | 5.2 | 8.7 | 0.00 | 0.00 | 0.00 | 58 | 1011.1 |
| 20260510035602 | 60 | 45 | 4.3 | 7.8 | 0.00 | 0.00 | 0.00 | 58 | 1011.0 |
| 20260510035056 | 60 | 313 | 4.3 | 7.0 | 0.00 | 0.00 | 0.00 | 58 | 1011.0 |
| 20260510034550 | 60 | 313 | 4.3 | 7.0 | 0.00 | 0.00 | 0.00 | 58 | 1011.0 |
| 20260510034531 | 60 | 312 | 4.3 | 8.7 | 0.00 | 0.00 | 0.00 | 58 | 1011.0 |
| 20260510033538 | 60 | 319 | 5.2 | 9.6 | 0.00 | 0.00 | 0.00 | 58 | 1011.0 |
| 20260510033032 | 60 | 314 | 5.2 | 9.6 | 0.00 | 0.00 | 0.00 | 59 | 1011.0 |
| 20260510032525 | 59 | 324 | 5.2 | 8.7 | 0.00 | 0.00 | 0.00 | 59 | 1011.0 |
| 20260510032019 | 59 | 317 | 4.3 | 8.7 | 0.00 | 0.00 | 0.00 | 60 | 1010.8 |
| 20260510031958 | 59 | 312 | 3.5 | 6.1 | 0.00 | 0.00 | 0.00 | 60 | 1010.8 |
| 20260510031232 | 59 | 277 | 2.6 | 5.2 | 0.00 | 0.00 | 0.00 | 59 | 1010.8 |
| 20260510030502 | 59 | 272 | 2.6 | 5.2 | 0.00 | 0.00 | 0.00 | 59 | 1010.8 |
| 20260510030223 | 59 | 271 | 2.6 | 5.2 | 0.00 | 0.00 | 0.00 | 59 | 1010.8 |
| 20260510025450 | 60 | 270 | 3.5 | 4.3 | 0.00 | 0.00 | 0.00 | 59 | 1010.8 |
| 20260510024944 | 60 | 270 | 3.5 | 5.2 | 0.00 | 0.00 | 0.00 | 59 | 1010.6 |
| 20260510024438 | 60 | 270 | 3.5 | 5.2 | 0.00 | 0.00 | 0.00 | 58 | 1010.6 |
| 20260510023932 | 60 | 269 | 3.5 | 5.2 | 0.00 | 0.00 | 0.00 | 58 | 1010.5 |
| 20260510023426 | 61 | 269 | 1.7 | 5.2 | 0.00 | 0.00 | 0.00 | 57 | 1010.6 |
| 20260510022920 | 60 | 269 | 0.9 | 3.5 | 0.00 | 0.00 | 0.00 | 57 | 1010.5 |
| 20260510022414 | 61 | 269 | 1.7 | 4.3 | 0.00 | 0.00 | 0.00 | 58 | 1010.3 |
| 20260510022127 | 61 | 269 | 2.6 | 5.2 | 0.00 | 0.00 | 0.00 | 58 | 1010.2 |
| 20260510021402 | 61 | 269 | 3.5 | 6.1 | 0.00 | 0.00 | 0.00 | 58 | 1010.1 |
| 20260510021122 | 61 | 267 | 4.3 | 6.1 | 0.00 | 0.00 | 0.00 | 57 | 1009.9 |
| 20260510020350 | 61 | 252 | 4.3 | 6.1 | 0.00 | 0.00 | 0.00 | 57 | 1009.9 |
| 20260510020106 | 60 | 246 | 2.6 | 6.1 | 0.00 | 0.00 | 0.00 | 58 | 1009.9 |
| 20260510015603 | 60 | 268 | 0.9 | 1.7 | 0.00 | 0.00 | 0.00 | 61 | 1009.9 |
| 20260510015055 | 60 | 268 | 1.7 | 5.2 | 0.00 | 0.00 | 0.00 | 60 | 1009.7 |
| 20260510014325 | 62 | 268 | 3.5 | 7.0 | 0.00 | 0.00 | 0.00 | 58 | 1009.6 |
| 20260510013820 | 63 | 274 | 6.1 | 11.3 | 0.00 | 0.00 | 0.00 | 54 | 1009.5 |
| 20260510013539 | 63 | 45 | 7.0 | 11.3 | 0.00 | 0.00 | 0.00 | 53 | 1009.3 |
| 20260510012808 | 63 | 316 | 6.1 | 10.4 | 0.00 | 0.00 | 0.00 | 53 | 1009.0 |
| 20260510012302 | 63 | 339 | 4.3 | 8.7 | 0.00 | 0.00 | 0.00 | 54 | 1009.0 |
| 20260510011755 | 63 | 266 | 3.5 | 6.1 | 0.00 | 0.00 | 0.00 | 54 | 1009.2 |
| 20260510011249 | 63 | 260 | 2.6 | 6.1 | 0.00 | 0.00 | 0.00 | 54 | 1009.3 |
| 20260510010744 | 63 | 254 | 2.6 | 4.3 | 0.00 | 0.00 | 0.00 | 54 | 1009.2 |
| 20260510010238 | 63 | 254 | 2.6 | 4.3 | 0.00 | 0.00 | 0.00 | 54 | 1009.0 |
| 20260510005732 | 63 | 251 | 2.6 | 5.2 | 0.00 | 0.00 | 0.00 | 54 | 1008.9 |
| 20260510005226 | 64 | 250 | 3.5 | 5.2 | 0.00 | 0.00 | 0.00 | 55 | 1008.8 |
| 20260510004719 | 64 | 246 | 3.5 | 4.3 | 0.00 | 0.00 | 0.00 | 56 | 1008.8 |
| 20260510004406 | 64 | 244 | 2.6 | 4.3 | 0.00 | 0.00 | 0.00 | 54 | 1008.6 |
| 20260510004255 | 64 | 245 | 3.5 | 4.3 | 0.00 | 0.00 | 0.00 | 55 | 1008.7 |
| 20260510003202 | 65 | 244 | 2.6 | 4.3 | 0.00 | 0.00 | 0.00 | 54 | 1008.6 |
| 20260510002656 | 65 | 270 | 2.6 | 3.5 | 0.00 | 0.00 | 0.00 | 55 | 1008.5 |
| 20260510002150 | 65 | 270 | 2.6 | 4.3 | 0.00 | 0.00 | 0.00 | 54 | 1008.4 |
| 20260510001649 | 65 | 270 | 2.6 | 4.3 | 0.00 | 0.00 | 0.00 | 54 | 1008.3 |
| 20260510001147 | 65 | 270 | 2.6 | 4.3 | 0.00 | 0.00 | 0.00 | 54 | 1008.3 |
| 20260510000645 | 66 | 270 | 2.6 | 5.2 | 0.00 | 0.00 | 0.00 | 55 | 1008.2 |
| 20260510000145 | 66 | 268 | 3.5 | 5.2 | 0.00 | 0.00 | 0.00 | 57 | 1008.2 |
| 20260509235643 | 66 | 268 | 4.3 | 7.0 | 0.00 | 0.00 | 0.00 | 58 | 1008.0 |
| 20260509235142 | 66 | 268 | 3.5 | 7.0 | 0.00 | 0.00 | 0.00 | 59 | 1008.0 |
| 20260509234642 | 67 | 268 | 1.7 | 5.2 | 0.00 | 0.00 | 0.00 | 59 | 1007.9 |
| 20260509234142 | 67 | 266 | 1.7 | 5.2 | 0.00 | 0.00 | 0.00 | 60 | 1007.8 |
| 20260509233643 | 67 | 266 | 2.6 | 5.2 | 0.00 | 0.00 | 0.00 | 60 | 1007.9 |
| 20260509233143 | 67 | 266 | 3.5 | 6.1 | 0.00 | 0.00 | 0.00 | 61 | 1007.8 |
| 20260509232642 | 67 | 265 | 4.3 | 7.8 | 0.00 | 0.00 | 0.00 | 60 | 1007.8 |
| 20260509232400 | 67 | 260 | 5.2 | 7.8 | 0.00 | 0.00 | 0.00 | 60 | 1007.9 |
| 20260509231638 | 67 | 258 | 6.1 | 9.6 | 0.00 | 0.00 | 0.00 | 59 | 1007.8 |
| 20260509231138 | 67 | 214 | 5.2 | 9.6 | 0.00 | 0.00 | 0.00 | 59 | 1007.8 |
| 20260509230639 | 68 | 231 | 6.1 | 10.4 | 0.00 | 0.00 | 0.00 | 58 | 1007.8 |
| 20260509230139 | 67 | 237 | 6.1 | 10.4 | 0.00 | 0.00 | 0.00 | 60 | 1007.8 |
| 20260509225639 | 67 | 213 | 5.2 | 10.4 | 0.00 | 0.00 | 0.00 | 59 | 1007.8 |
| 20260509225138 | 67 | 212 | 4.3 | 10.4 | 0.00 | 0.00 | 0.00 | 59 | 1007.8 |
| 20260509224638 | 67 | 222 | 5.2 | 9.6 | 0.00 | 0.00 | 0.00 | 59 | 1007.8 |
| 20260509224138 | 67 | 223 | 5.2 | 9.6 | 0.00 | 0.00 | 0.00 | 58 | 1007.8 |
| 20260509223632 | 67 | 222 | 6.1 | 12.2 | 0.00 | 0.00 | 0.00 | 60 | 1007.8 |
| 20260509223126 | 67 | 219 | 6.1 | 12.2 | 0.00 | 0.00 | 0.00 | 59 | 1007.9 |
| 20260509222620 | 67 | 212 | 6.1 | 10.4 | 0.00 | 0.00 | 0.00 | 58 | 1007.8 |
| 20260509222113 | 67 | 211 | 6.1 | 10.4 | 0.00 | 0.00 | 0.00 | 58 | 1007.9 |
| 20260509221608 | 67 | 223 | 5.2 | 9.6 | 0.00 | 0.00 | 0.00 | 58 | 1007.8 |
| 20260509221102 | 67 | 218 | 6.1 | 9.6 | 0.00 | 0.00 | 0.00 | 57 | 1007.8 |
| 20260509220556 | 68 | 256 | 6.1 | 8.7 | 0.00 | 0.00 | 0.00 | 57 | 1007.8 |
| 20260509220049 | 68 | 247 | 6.1 | 9.6 | 0.00 | 0.00 | 0.00 | 58 | 1007.8 |
| 20260509220021 | 68 | 225 | 7.0 | 9.6 | 0.00 | 0.00 | 0.00 | 57 | 1007.7 |
| 20260509215038 | 68 | 233 | 7.0 | 12.2 | 0.00 | 0.00 | 0.00 | 59 | 1007.7 |
| 20260509214531 | 68 | 247 | 5.2 | 12.2 | 0.00 | 0.00 | 0.00 | 58 | 1007.6 |
| 20260509214026 | 68 | 237 | 4.3 | 7.8 | 0.00 | 0.00 | 0.00 | 58 | 1007.7 |
| 20260509213520 | 67 | 237 | 5.2 | 7.8 | 0.00 | 0.00 | 0.00 | 59 | 1007.6 |
| 20260509213014 | 67 | 239 | 6.1 | 9.6 | 0.00 | 0.00 | 0.00 | 59 | 1007.7 |
| 20260509212507 | 67 | 241 | 6.1 | 9.6 | 0.00 | 0.00 | 0.00 | 57 | 1007.6 |
| 20260509212224 | 67 | 225 | 5.2 | 7.8 | 0.00 | 0.00 | 0.00 | 60 | 1007.5 |
| 20260509211456 | 67 | 220 | 5.2 | 9.6 | 0.00 | 0.00 | 0.00 | 58 | 1007.5 |
| 20260509210949 | 67 | 217 | 6.1 | 13.0 | 0.00 | 0.00 | 0.00 | 57 | 1007.5 |
| 20260509210443 | 67 | 239 | 7.0 | 13.0 | 0.00 | 0.00 | 0.00 | 57 | 1007.6 |
| 20260509205938 | 67 | 256 | 8.7 | 13.9 | 0.00 | 0.00 | 0.00 | 57 | 1007.5 |
| 20260509205431 | 67 | 253 | 8.7 | 13.9 | 0.00 | 0.00 | 0.00 | 55 | 1007.5 |
| 20260509205146 | 67 | 265 | 7.8 | 13.0 | 0.00 | 0.00 | 0.00 | 56 | 1007.4 |
| 20260509204420 | 67 | 261 | 7.8 | 13.0 | 0.00 | 0.00 | 0.00 | 55 | 1007.5 |
| 20260509203913 | 67 | 252 | 7.8 | 13.0 | 0.00 | 0.00 | 0.00 | 54 | 1007.5 |
| 20260509203408 | 67 | 254 | 7.0 | 13.0 | 0.00 | 0.00 | 0.00 | 54 | 1007.2 |
| 20260509202901 | 67 | 265 | 7.0 | 13.0 | 0.00 | 0.00 | 0.00 | 54 | 1007.1 |
| 20260509202615 | 67 | 274 | 9.6 | 15.6 | 0.00 | 0.00 | 0.00 | 53 | 1007.0 |
| 20260509201849 | 67 | 265 | 10.4 | 15.6 | 0.00 | 0.00 | 0.00 | 52 | 1007.1 |
| 20260509201343 | 68 | 274 | 9.6 | 15.6 | 0.00 | 0.00 | 0.00 | 53 | 1007.1 |
| 20260509200837 | 69 | 250 | 7.8 | 13.0 | 0.00 | 0.00 | 0.00 | 52 | 1007.1 |
| 20260509200559 | 69 | 256 | 7.8 | 13.0 | 0.00 | 0.00 | 0.00 | 54 | 1007.0 |
| 20260509200043 | 69 | 280 | 8.7 | 13.0 | 0.00 | 0.00 | 0.00 | 52 | 1007.1 |
| 20260509195320 | 68 | 216 | 8.7 | 13.0 | 0.00 | 0.00 | 0.00 | 55 | 1007.2 |
| 20260509194814 | 67 | 245 | 10.4 | 17.4 | 0.00 | 0.00 | 0.00 | 54 | 1007.4 |
| 20260509194538 | 67 | 228 | 8.7 | 17.4 | 0.00 | 0.00 | 0.00 | 54 | 1007.2 |
| 20260509193802 | 67 | 258 | 7.0 | 15.6 | 0.00 | 0.00 | 0.00 | 56 | 1007.4 |
| 20260509193255 | 67 | 243 | 8.7 | 14.8 | 0.00 | 0.00 | 0.00 | 54 | 1007.5 |
| 20260509192749 | 68 | 260 | 9.6 | 16.5 | 0.00 | 0.00 | 0.00 | 53 | 1007.5 |
| 20260509192244 | 67 | 248 | 10.4 | 16.5 | 0.00 | 0.00 | 0.00 | 54 | 1007.6 |
| 20260509191738 | 67 | 235 | 9.6 | 16.5 | 0.00 | 0.00 | 0.00 | 53 | 1007.7 |
| 20260509191232 | 68 | 268 | 7.8 | 16.5 | 0.00 | 0.00 | 0.00 | 55 | 1007.7 |
| 20260509190947 | 67 | 218 | 8.7 | 16.5 | 0.00 | 0.00 | 0.00 | 57 | 1007.8 |
| 20260509190220 | 67 | 230 | 10.4 | 16.5 | 0.00 | 0.00 | 0.00 | 52 | 1007.8 |
| 20260509185714 | 67 | 273 | 9.6 | 19.1 | 0.00 | 0.00 | 0.00 | 54 | 1008.0 |
| 20260509185207 | 67 | 218 | 8.7 | 19.1 | 0.00 | 0.00 | 0.00 | 54 | 1007.9 |
| 20260509184701 | 68 | 258 | 9.6 | 17.4 | 0.00 | 0.00 | 0.00 | 57 | 1007.9 |
| 20260509184156 | 68 | 207 | 9.6 | 17.4 | 0.00 | 0.00 | 0.00 | 55 | 1007.9 |
| 20260509183650 | 68 | 225 | 9.6 | 18.2 | 0.00 | 0.00 | 0.00 | 58 | 1008.0 |
| 20260509183143 | 67 | 250 | 10.4 | 18.2 | 0.00 | 0.00 | 0.00 | 55 | 1008.0 |
| 20260509182830 | 65 | 198 | 10.4 | 20.0 | 0.00 | 0.00 | 0.00 | 58 | 1008.2 |
| 20260509182713 | 66 | 258 | 11.3 | 18.2 | 0.00 | 0.00 | 0.00 | 61 | 1008.1 |
| 20260509181845 | 66 | 209 | 10.4 | 20.0 | 0.00 | 0.00 | 0.00 | 58 | 1008.2 |
| 20260509181119 | 66 | 261 | 10.4 | 20.0 | 0.00 | 0.00 | 0.00 | 53 | 1008.2 |
| 20260509180614 | 66 | 220 | 8.7 | 16.5 | 0.00 | 0.00 | 0.00 | 57 | 1008.1 |
| 20260509180108 | 68 | 252 | 7.8 | 15.6 | 0.00 | 0.00 | 0.00 | 54 | 1008.1 |
| 20260509175602 | 67 | 250 | 9.6 | 18.2 | 0.00 | 0.00 | 0.00 | 59 | 1008.2 |
| 20260509175055 | 66 | 182 | 9.6 | 18.2 | 0.00 | 0.00 | 0.00 | 57 | 1008.2 |
| 20260509174812 | 66 | 227 | 9.6 | 15.6 | 0.00 | 0.00 | 0.00 | 60 | 1008.2 |
| 20260509174050 | 66 | 247 | 10.4 | 18.2 | 0.00 | 0.00 | 0.00 | 59 | 1008.3 |
| 20260509173550 | 65 | 206 | 9.6 | 18.2 | 0.00 | 0.00 | 0.00 | 57 | 1008.4 |
| 20260509173049 | 65 | 204 | 8.7 | 16.5 | 0.00 | 0.00 | 0.00 | 60 | 1008.5 |
| 20260509172549 | 65 | 235 | 7.8 | 20.9 | 0.00 | 0.00 | 0.00 | 61 | 1008.5 |
| 20260509172049 | 65 | 223 | 8.7 | 20.9 | 0.00 | 0.00 | 0.00 | 61 | 1008.6 |
| 20260509171806 | 65 | 182 | 10.4 | 16.5 | 0.00 | 0.00 | 0.00 | 60 | 1008.7 |
| 20260509171049 | 65 | 264 | 11.3 | 22.6 | 0.00 | 0.00 | 0.00 | 61 | 1008.8 |
| 20260509170549 | 65 | 225 | 10.4 | 22.6 | 0.00 | 0.00 | 0.00 | 59 | 1008.9 |
| 20260509170050 | 65 | 247 | 10.4 | 16.5 | 0.00 | 0.00 | 0.00 | 64 | 1008.8 |
| 20260509165550 | 64 | 231 | 11.3 | 20.0 | 0.00 | 0.00 | 0.00 | 61 | 1009.0 |
| 20260509165049 | 64 | 243 | 12.2 | 20.0 | 0.00 | 0.00 | 0.00 | 60 | 1009.0 |
| 20260509164545 | 64 | 250 | 12.2 | 19.1 | 0.00 | 0.00 | 0.00 | 58 | 1009.2 |
| 20260509164045 | 64 | 273 | 8.7 | 19.1 | 0.00 | 0.00 | 0.00 | 60 | 1008.9 |
| 20260509163545 | 65 | 228 | 8.7 | 14.8 | 0.00 | 0.00 | 0.00 | 64 | 1008.9 |
| 20260509163045 | 64 | 219 | 7.8 | 13.9 | 0.00 | 0.00 | 0.00 | 64 | 1008.7 |
| 20260509162545 | 63 | 220 | 5.2 | 13.0 | 0.00 | 0.00 | 0.00 | 69 | 1008.8 |
| 20260509162308 | 62 | 234 | 4.3 | 7.8 | 0.00 | 0.00 | 0.00 | 68 | 1008.8 |
| 20260509161546 | 62 | 233 | 3.5 | 7.8 | 0.00 | 0.00 | 0.00 | 68 | 1009.2 |
| 20260509161045 | 61 | 232 | 3.5 | 7.0 | 0.00 | 0.00 | 0.00 | 70 | 1009.2 |
| 20260509160545 | 61 | 231 | 4.3 | 8.7 | 0.00 | 0.00 | 0.00 | 69 | 1009.2 |
| 20260509160301 | 60 | 236 | 6.1 | 10.4 | 0.00 | 0.00 | 0.00 | 69 | 1009.3 |
| 20260509155540 | 60 | 228 | 7.0 | 11.3 | 0.00 | 0.00 | 0.00 | 70 | 1009.2 |
| 20260509155040 | 60 | 220 | 6.1 | 11.3 | 0.00 | 0.00 | 0.00 | 68 | 1009.2 |
| 20260509154540 | 60 | 237 | 6.1 | 8.7 | 0.00 | 0.00 | 0.00 | 68 | 1009.2 |
| 20260509154040 | 61 | 235 | 6.1 | 9.6 | 0.00 | 0.00 | 0.00 | 67 | 1009.2 |
| 20260509153540 | 61 | 233 | 6.1 | 10.4 | 0.00 | 0.00 | 0.00 | 69 | 1009.0 |
| 20260509153037 | 60 | 250 | 6.1 | 10.4 | 0.00 | 0.00 | 0.00 | 70 | 1009.3 |
| 20260509152538 | 60 | 218 | 7.8 | 10.4 | 0.00 | 0.00 | 0.00 | 69 | 1009.4 |
| 20260509152037 | 60 | 231 | 7.8 | 10.4 | 0.00 | 0.00 | 0.00 | 70 | 1009.4 |
| 20260509151537 | 59 | 221 | 7.8 | 13.0 | 0.00 | 0.00 | 0.00 | 71 | 1009.4 |
| 20260509151037 | 59 | 222 | 9.6 | 16.5 | 0.00 | 0.00 | 0.00 | 70 | 1009.5 |
| 20260509150537 | 59 | 216 | 9.6 | 16.5 | 0.00 | 0.00 | 0.00 | 69 | 1009.5 |
| 20260509150039 | 59 | 221 | 8.7 | 13.9 | 0.00 | 0.00 | 0.00 | 69 | 1009.5 |
| 20260509145758 | 59 | 263 | 8.7 | 13.9 | 0.00 | 0.00 | 0.00 | 69 | 1009.5 |
| 20260509145039 | 60 | 239 | 7.8 | 13.9 | 0.00 | 0.00 | 0.00 | 69 | 1009.5 |
| 20260509144538 | 59 | 233 | 7.8 | 13.9 | 0.00 | 0.00 | 0.00 | 70 | 1009.4 |
| 20260509144032 | 59 | 235 | 7.8 | 13.9 | 0.00 | 0.00 | 0.00 | 71 | 1009.5 |
| 20260509143750 | 59 | 207 | 8.7 | 15.6 | 0.00 | 0.00 | 0.00 | 69 | 1009.4 |
| 20260509143020 | 59 | 262 | 8.7 | 15.6 | 0.00 | 0.00 | 0.00 | 69 | 1009.3 |
| 20260509142513 | 59 | 225 | 9.6 | 15.6 | 0.00 | 0.00 | 0.00 | 70 | 1009.3 |
| 20260509142433 | 59 | 242 | 9.6 | 14.8 | 0.00 | 0.00 | 0.00 | 68 | 1009.3 |
| 20260509142048 | 59 | 225 | 9.6 | 15.6 | 0.00 | 0.00 | 0.00 | 68 | 1009.3 |
| 20260509140955 | 59 | 222 | 7.8 | 14.8 | 0.00 | 0.00 | 0.00 | 68 | 1009.3 |
| 20260509140453 | 59 | 249 | 6.1 | 9.6 | 0.00 | 0.00 | 0.00 | 72 | 1009.2 |
| 20260509135953 | 58 | 208 | 5.2 | 8.7 | 0.00 | 0.00 | 0.00 | 72 | 1009.3 |
| 20260509135453 | 58 | 222 | 5.2 | 7.8 | 0.00 | 0.00 | 0.00 | 73 | 1009.4 |
| 20260509134953 | 57 | 241 | 6.1 | 8.7 | 0.00 | 0.00 | 0.00 | 73 | 1009.4 |
| 20260509134453 | 57 | 227 | 6.1 | 8.7 | 0.00 | 0.00 | 0.00 | 72 | 1009.5 |
| 20260509133952 | 57 | 247 | 5.2 | 7.8 | 0.00 | 0.00 | 0.00 | 71 | 1009.6 |
| 20260509133454 | 57 | 242 | 6.1 | 7.8 | 0.00 | 0.00 | 0.00 | 72 | 1009.7 |
| 20260509132953 | 57 | 261 | 6.1 | 8.7 | 0.00 | 0.00 | 0.00 | 72 | 1009.7 |
| 20260509132453 | 56 | 247 | 5.2 | 8.7 | 0.00 | 0.00 | 0.00 | 72 | 1009.7 |
| 20260509131953 | 56 | 237 | 5.2 | 7.8 | 0.00 | 0.00 | 0.00 | 73 | 1009.7 |
| 20260509131934 | 55 | 237 | 4.3 | 7.8 | 0.00 | 0.00 | 0.00 | 73 | 1009.8 |
| 20260509130951 | 54 | 233 | 3.5 | 7.0 | 0.00 | 0.00 | 0.00 | 72 | 1009.9 |
| 20260509130451 | 54 | 233 | 2.6 | 5.2 | 0.00 | 0.00 | 0.00 | 70 | 1009.9 |
| 20260509125949 | 54 | 233 | 2.6 | 4.3 | 0.00 | 0.00 | 0.00 | 68 | 1010.0 |
| 20260509125708 | 54 | 233 | 2.6 | 4.3 | 0.00 | 0.00 | 0.00 | 68 | 1010.1 |
| 20260509124949 | 53 | 233 | 2.6 | 4.3 | 0.00 | 0.00 | 0.00 | 69 | 1010.1 |
| 20260509124447 | 53 | 233 | 3.5 | 6.1 | 0.00 | 0.00 | 0.00 | 70 | 1010.0 |
| 20260509123945 | 53 | 233 | 3.5 | 6.1 | 0.00 | 0.00 | 0.00 | 68 | 1010.1 |
| 20260509123439 | 53 | 233 | 3.5 | 4.3 | 0.00 | 0.00 | 0.00 | 66 | 1010.3 |
| 20260509122933 | 53 | 233 | 3.5 | 5.2 | 0.00 | 0.00 | 0.00 | 67 | 1010.3 |
| 20260509122426 | 53 | 233 | 3.5 | 5.2 | 0.00 | 0.00 | 0.00 | 66 | 1010.4 |
| 20260509122142 | 53 | 233 | 3.5 | 7.0 | 0.00 | 0.00 | 0.00 | 66 | 1010.3 |
| 20260509121415 | 53 | 234 | 3.5 | 7.0 | 0.00 | 0.00 | 0.00 | 66 | 1010.2 |
| 20260509120908 | 53 | 230 | 3.5 | 4.3 | 0.00 | 0.00 | 0.00 | 67 | 1010.2 |
| 20260509120403 | 53 | 228 | 3.5 | 4.3 | 0.00 | 0.00 | 0.00 | 66 | 1010.1 |
| 20260509115857 | 53 | 229 | 3.5 | 5.2 | 0.00 | 0.00 | 0.00 | 64 | 1010.2 |
| 20260509115613 | 53 | 227 | 2.6 | 5.2 | 0.00 | 0.00 | 0.00 | 64 | 1010.2 |
| 20260509114844 | 53 | 227 | 1.7 | 4.3 | 0.00 | 0.00 | 0.00 | 64 | 1010.2 |
| 20260509114339 | 53 | 226 | 1.7 | 3.5 | 0.00 | 0.00 | 0.00 | 63 | 1010.2 |
| 20260509113832 | 53 | 226 | 0.9 | 2.6 | 0.00 | 0.00 | 0.00 | 64 | 1010.2 |
| 20260509113326 | 53 | 226 | 0.9 | 1.7 | 0.00 | 0.00 | 0.00 | 62 | 1010.1 |
| 20260509113039 | 53 | 226 | 0.9 | 1.7 | 0.00 | 0.00 | 0.00 | 62 | 1010.1 |
| 20260509112315 | 53 | 226 | 0.9 | 1.7 | 0.00 | 0.00 | 0.00 | 61 | 1010.1 |
| 20260509111815 | 53 | 226 | 0.9 | 2.6 | 0.00 | 0.00 | 0.00 | 62 | 1010.0 |
| 20260509111315 | 53 | 226 | 0.9 | 2.6 | 0.00 | 0.00 | 0.00 | 62 | 1010.0 |
| 20260509110814 | 53 | 226 | 1.7 | 2.6 | 0.00 | 0.00 | 0.00 | 62 | 1010.1 |
| 20260509110313 | 52 | 226 | 1.7 | 2.6 | 0.00 | 0.00 | 0.00 | 62 | 1010.0 |
| 20260509105810 | 53 | 226 | 1.7 | 2.6 | 0.00 | 0.00 | 0.00 | 62 | 1010.0 |
| 20260509105310 | 53 | 226 | 1.7 | 2.6 | 0.00 | 0.00 | 0.00 | 61 | 1010.0 |
| 20260509104811 | 53 | 226 | 0.9 | 2.6 | 0.00 | 0.00 | 0.00 | 61 | 1009.9 |
| 20260509104309 | 53 | 226 | 0.9 | 1.7 | 0.00 | 0.00 | 0.00 | 61 | 1009.8 |
| 20260509103809 | 53 | 226 | 0.9 | 1.7 | 0.00 | 0.00 | 0.00 | 61 | 1009.8 |
| 20260509103309 | 53 | 226 | 0.9 | 2.6 | 0.00 | 0.00 | 0.00 | 61 | 1009.7 |
| 20260509102808 | 53 | 226 | 0.9 | 2.6 | 0.00 | 0.00 | 0.00 | 61 | 1009.8 |
| 20260509102309 | 53 | 226 | 0.9 | 2.6 | 0.00 | 0.00 | 0.00 | 61 | 1009.8 |
| 20260509101809 | 53 | 227 | 0.0 | 1.7 | 0.00 | 0.00 | 0.00 | 61 | 1009.8 |
| 20260509101308 | 53 | 227 | 0.0 | 1.7 | 0.00 | 0.00 | 0.00 | 61 | 1009.9 |
| 20260509100808 | 52 | 227 | 0.9 | 1.7 | 0.00 | 0.00 | 0.00 | 61 | 1009.9 |
| 20260509100309 | 52 | 227 | 0.9 | 1.7 | 0.00 | 0.00 | 0.00 | 61 | 1009.9 |
| 20260509095809 | 52 | 227 | 0.0 | 1.7 | 0.00 | 0.00 | 0.00 | 61 | 1009.9 |
| 20260509095309 | 52 | 227 | 0.9 | 2.6 | 0.00 | 0.00 | 0.00 | 61 | 1009.9 |
| 20260509095029 | 52 | 227 | 0.9 | 2.6 | 0.00 | 0.00 | 0.00 | 60 | 1010.0 |
| 20260509094309 | 52 | 227 | 0.9 | 2.6 | 0.00 | 0.00 | 0.00 | 60 | 1010.0 |
| 20260509094257 | 52 | 227 | 1.7 | 2.6 | 0.00 | 0.00 | 0.00 | 60 | 1010.0 |
| 20260509093526 | 52 | 226 | 1.7 | 3.5 | 0.00 | 0.00 | 0.00 | 60 | 1010.0 |
| 20260509093029 | 53 | 226 | 2.6 | 4.3 | 0.00 | 0.00 | 0.00 | 60 | 1009.9 |
| 20260509092307 | 53 | 227 | 2.6 | 4.3 | 0.00 | 0.00 | 0.00 | 60 | 1010.0 |
| 20260509091806 | 52 | 226 | 2.6 | 4.3 | 0.00 | 0.00 | 0.00 | 60 | 1009.9 |
| 20260509091306 | 52 | 227 | 2.6 | 4.3 | 0.00 | 0.00 | 0.00 | 60 | 1009.9 |
| 20260509090805 | 53 | 227 | 2.6 | 4.3 | 0.00 | 0.00 | 0.00 | 59 | 1010.0 |
| 20260509090750 | 53 | 227 | 2.6 | 4.3 | 0.00 | 0.00 | 0.00 | 59 | 1010.2 |
| 20260509085804 | 53 | 225 | 2.6 | 4.3 | 0.00 | 0.00 | 0.00 | 58 | 1010.1 |
| 20260509085306 | 54 | 225 | 3.5 | 6.1 | 0.00 | 0.00 | 0.00 | 58 | 1010.0 |
| 20260509084803 | 54 | 225 | 3.5 | 6.1 | 0.00 | 0.00 | 0.00 | 59 | 1010.1 |
| 20260509084303 | 54 | 225 | 3.5 | 6.1 | 0.00 | 0.00 | 0.00 | 59 | 1010.1 |
| 20260509083802 | 53 | 225 | 2.6 | 5.2 | 0.00 | 0.00 | 0.00 | 59 | 1010.0 |
| 20260509083303 | 53 | 225 | 1.7 | 3.5 | 0.00 | 0.00 | 0.00 | 58 | 1010.1 |
| 20260509083023 | 53 | 225 | 1.7 | 2.6 | 0.00 | 0.00 | 0.00 | 57 | 1010.1 |
| 20260509082258 | 53 | 225 | 0.9 | 3.5 | 0.00 | 0.00 | 0.00 | 57 | 1010.2 |